Location: Unspecified
(48.2082°N, 0.0000°E)
Time: 04:54:06
(UTC+00:00)

Altair - Pass Details

Date: 22 June 2019
Orbit: 1501 x 1683 km, 47.2° (Epoch: 16 August)

Event Time Altitude Azimuth Distance (km) Brightness Sun altitude
Rises 03:07:41 0° 290° (WNW) 4,879 9.9 -7.2°
Reaches altitude 10° 03:11:26 10° 279° (W) 3,910 9.3 -6.7°
Maximum altitude 03:19:13 27° 228° (SW) 2,835 8.3 -5.9°
Drops below altitude 10° 03:27:05 10° 176° (S) 3,936 9.3 -4.9°
Sets 03:30:54 0° 165° (SSE) 4,917 9.9 -4.5°
